This is the latest recevied weather packets stored in our database for station/object G4KVI. If no packets are shown the sender has not sent any weather packets the latest 10 day(s).
| Time | Temp. | Humidity | Pressure | Rain* | Wind** | Luminosity | Snow |
|---|---|---|---|---|---|---|---|
| 1787526904 | 12.22° C | 84% | 1024.7 hPa | 0 mm | - | 0 W/m² | - |
| 1787526604 | 12.22° C | 84% | 1025 hPa | 0 mm | - | 0 W/m² | - |
| 1787526304 | 12.22° C | 83% | 1025 hPa | 0 mm | - | 0 W/m² | - |
| 1787526004 | 12.22° C | 82% | 1024.9 hPa | 0 mm | - | 0 W/m² | - |
| 1787525704 | 12.78° C | 81% | 1025.1 hPa | 0 mm | - | 0 W/m² | - |
| 1787525404 | 12.78° C | 81% | 1025 hPa | 0 mm | - | 0 W/m² | - |
| 1787525104 | 13.33° C | 81% | 1025.1 hPa | 0 mm | - | 0 W/m² | - |
| 1787524804 | 13.33° C | 81% | 1024.7 hPa | 0 mm | - | 0 W/m² | - |
| 1787524504 | 13.33° C | 80% | 1025 hPa | 0 mm | - | 0 W/m² | - |
| 1787524204 | 13.33° C | 80% | 1024.8 hPa | 0 mm | - | 0 W/m² | - |
| 1787523904 | 13.33° C | 80% | 1025.1 hPa | 0 mm | - | 0 W/m² | - |
| 1787523604 | 13.89° C | 80% | 1025.2 hPa | 0 mm | - | 0 W/m² | - |
| 1787523304 | 13.33° C | 79% | 1025.2 hPa | 0 mm | - | 0 W/m² | - |
| 1787523004 | 13.89° C | 78% | 1025.1 hPa | 0 mm | - | 0 W/m² | - |
| 1787522704 | 13.89° C | 78% | 1025.2 hPa | 0 mm | - | 0 W/m² | - |
| 1787522404 | 14.44° C | 77% | 1025.1 hPa | 0 mm | - | 0 W/m² | - |
| 1787522104 | 14.44° C | 77% | 1025.1 hPa | 0 mm | - | 0 W/m² | - |
| 1787521804 | 14.44° C | 77% | 1025.3 hPa | 0 mm | - | 0 W/m² | - |
| 1787521504 | 14.44° C | 75% | 1025 hPa | 0 mm | - | 0 W/m² | - |
| 1787521204 | 15° C | 75% | 1025.3 hPa | 0 mm | - | 0 W/m² | - |
| 1787520904 | 15° C | 74% | 1025.2 hPa | 0 mm | - | 0 W/m² | - |
| 1787520604 | 15.56° C | 73% | 1025.2 hPa | 0 mm | - | 0 W/m² | - |
| 1787520304 | 15.56° C | 73% | 1025.4 hPa | 0 mm | - | 0 W/m² | - |
| 1787520004 | 15.56° C | 72% | 1025.3 hPa | 0 mm | - | 0 W/m² | - |
| 1787519704 | 15.56° C | 71% | 1025.2 hPa | 0 mm | - | 0 W/m² | - |
* Rain latest hour (hover to see other rain measurements)
** Current wind speed in m/s (hover to see current wind gust speed)